AO-07 1 07530U 74089B 26257.02921830 -.00000043 00000-0 20505-4 0 9994 2 07530 101.9920 271.2047 0012045 323.1489 60.3294 12.53699620371653 UO-11 1 14781U 84021B 26257.14939211 .00000992 00000-0 10607-3 0 9995 2 14781 97.8168 221.7910 0006092 245.7359 114.3223 14.90989494270389 LO-19 1 20442U 90005G 26256.64791690 .00000056 00000-0 36601-4 0 9990 2 20442 98.8824 280.8795 0010662 310.1916 49.8334 14.34143630915070 AO-27 1 22825U 93061C 26257.15214434 .00000066 00000-0 42091-4 0 9996 2 22825 98.6797 324.4965 0008132 191.8367 168.2626 14.30961074719721 FO-29 1 24278U 96046B 26256.80884165 -.00000016 00000-0 20880-4 0 9999 2 24278 98.5170 93.5313 0349125 226.3391 130.8318 13.53277958485156 GO-32 1 25397U 98043D 26256.57009081 .00000027 00000-0 32000-4 0 9999 2 25397 99.0151 251.5908 0001108 15.4184 344.7027 14.24442604463917 ISS 1 25544U 98067A 26257.14321681 .00004666 00000-0 92466-4 0 9991 2 25544 51.6309 219.8284 0004931 139.3822 220.7535 15.49107075585545 NO-44 1 26931U 01043C 26256.72239409 .00000058 00000-0 52735-4 0 9995 2 26931 67.0528 15.2724 0005736 272.4834 87.5611 14.31983338303123 SO-50 1 27607U 02058C 26257.16095843 .00000776 00000-0 10900-3 0 9998 2 27607 64.5515 213.6655 0072036 246.1360 113.2186 14.83210485277653 CO-55 1 27844U 03031E 26257.25056750 .00000190 00000-0 10120-3 0 9991 2 27844 98.6770 264.7043 0008431 289.6947 70.3322 14.24380949204356 RS-22 1 27939U 03042A 26257.31481688 .00000526 00000-0 89032-4 0 9999 2 27939 98.3476 84.2169 0011182 352.8116 131.8211 14.73598107228675 CO-65 1 32785U 08021C 26257.25542614 .00003561 00000-0 22214-3 0 9996 2 32785 97.8374 240.6210 0010433 86.5012 273.7409 15.10155406998638 CO-66 1 32791U 08021J 26256.57958615 .00015778 00000-0 45911-3 0 9991 2 32791 97.7562 258.9126 0003159 44.1764 315.9730 15.35518943 830 RS-30 1 32953U 08025A 26257.34867912 -.00000002 00000-0 -84272-4 0 9990 2 32953 82.5026 299.9884 0020681 116.1709 244.1500 12.43182760830773 SRMSAT 1 37841U 11058D 26257.07776403 .00000374 00000-0 59220-4 0 9990 2 37841 19.9710 241.4257 0011984 101.9182 322.2174 14.11592249770397 ZACUBE-1 1 39417U 13066B 26256.84340603 .00004466 00000-0 34173-3 0 9990 2 39417 97.8139 219.6344 0039854 316.6251 43.1839 15.01798687694037 Delfi-N3xt 1 39428U 13066N 26257.22923041 .00004179 00000-0 35872-3 0 9996 2 39428 97.8290 177.4962 0071376 270.5488 88.7554 14.96078789687936 GOMX-1 1 39430U 13066Q 26257.24511853 .00001255 00000-0 19320-3 0 9997 2 39430 97.6435 92.0949 0128555 150.6774 210.1728 14.69691699682999 LO-74 1 39440U 13066AA 26257.13862932 .00003454 00000-0 31672-3 0 9990 2 39440 97.8982 206.5592 0058666 92.2567 268.5372 14.94259901690277 AO-73 1 39444U 13066AE 26257.18310171 .00005019 00000-0 30427-3 0 9998 2 39444 97.8383 230.6062 0033417 260.2536 99.4918 15.10582811693094 DTUSAT-2 1 40030U 14033W 26255.98513021 .00004682 00000-0 24761-3 0 9990 2 40030 98.0914 259.3803 0006209 302.4998 57.5632 15.15999708665988 LILACSAT-2 1 40908U 15049K 26257.26266924 .00014131 00000-0 21800-3 0 9993 2 40908 97.4558 297.6293 0004562 289.4970 70.5791 15.54253896609579 Lapan A3 1 41603U 16040E 26257.26931803 .00002777 00000-0 87670-4 0 9994 2 41603 97.1566 250.5539 0011848 61.2801 298.9631 15.33592370568464 CAS-2T 1 41847U 16066G 26257.23211286 .00000860 00000-0 13003-3 0 9994 2 41847 98.3755 331.9432 0340498 219.1767 138.4327 14.44840123517652 TechnoSat 1 42829U 17042E 26257.19807953 .00002284 00000-0 16292-3 0 9992 2 42829 97.4394 51.5594 0018200 146.3560 213.8826 15.05392742500090 AO-91 1 43017U 17073E 26257.07791966 .00007560 00000-0 32070-3 0 9993 2 43017 97.4554 122.4776 0148062 22.0220 338.7285 15.13896466478834 S-Net D 1 43186U 18014G 26256.71615829 .00003337 00000-0 17035-3 0 9991 2 43186 97.5254 160.9482 0009835 74.6778 285.5542 15.17369169472181 S-Net B 1 43187U 18014H 26257.19103938 .00003450 00000-0 17612-3 0 9995 2 43187 97.5258 161.4092 0010362 69.4341 290.8003 15.17340993472257 S-Net A 1 43188U 18014J 26256.97833205 .00003858 00000-0 19633-3 0 9995 2 43188 97.5270 161.4238 0010324 70.5745 289.6603 15.17380312472221 S-Net C 1 43189U 18014K 26257.19545971 .00003538 00000-0 18053-3 0 9991 2 43189 97.5287 161.7281 0011571 63.0640 297.1774 15.17331282470804 Ten-Koh 1 43677U 18084G 26256.79556891 .00001092 00000-0 85491-4 0 9992 2 43677 98.0738 92.9082 0009469 170.8287 189.3111 15.03243105429479 PO-101 1 43678U 18084H 26257.32222242 .00000969 00000-0 81634-4 0 9990 2 43678 98.1172 97.4543 0011512 229.4845 130.5375 15.00723924429589 QO-100 1 43700U 18090A 26257.22385742 .00000136 00000-0 00000-0 0 9997 2 43700 0.0145 117.7179 0002579 87.2981 254.5921 1.00274976 28573 MinXSS-2 1 43758U 18099A 26256.73209511 .00035847 00000-0 57107-3 0 9993 2 43758 97.4452 335.9783 0005112 294.9301 65.1421 15.53166058427849 AO-95 1 43770U 18099N 26256.70653912 .00008123 00000-0 29618-3 0 9995 2 43770 97.4289 316.6898 0009088 43.9638 316.2323 15.28391076426735 SNUSat 2 1 43782U 18099AA 26256.66851036 .00006038 00000-0 25932-3 0 9998 2 43782 97.3967 308.7242 0009511 355.0541 5.0600 15.23018966426499 SnugLite 1 43784U 18099AC 26257.13767435 .00009650 00000-0 34679-3 0 9993 2 43784 97.3775 310.6068 0002279 12.2339 347.8956 15.28847105426904 ITASat 1 1 43786U 18099AE 26257.11805822 .00005342 00000-0 25051-3 0 9994 2 43786 97.3936 306.8722 0013328 47.6971 312.5391 15.20014418426413 EAGLET 1 1 43790U 18099AJ 26256.59514180 .00002908 00000-0 16575-3 0 9990 2 43790 97.4143 303.9146 0012084 46.4736 313.7498 15.13502536425708 ESEO 1 43792U 18099AL 26257.04476530 .00001685 00000-0 12448-3 0 9995 2 43792 97.3906 290.6092 0012682 35.8146 324.3929 15.04465055425160 JO-97 1 43803U 18099AX 26256.68808205 .00012847 00000-0 36549-3 0 9995 2 43803 97.4036 319.9541 0004116 325.6072 34.4905 15.36262503427201 Suomi 100 1 43804U 18099AY 26256.73105045 .00008405 00000-0 28940-3 0 9995 2 43804 97.4092 316.8697 0008513 334.6156 25.4665 15.30262833426954 ISAT 1 43879U 18111D 26256.40669753 .00445387 81317-4 11771-2 0 9998 2 43879 97.5799 199.9101 0007649 129.8623 230.3326 15.94655047425068 UWE-4 1 43880U 18111E 26256.79245483 .00037613 00000-0 63234-3 0 9999 2 43880 97.5820 189.6194 0007371 27.6586 332.5056 15.51636958424492 Prox-1 1 44339U 19036A 26257.23347634 .00010831 00000-0 10021-2 0 9995 2 44339 23.9940 238.5326 0005014 352.8597 7.1831 14.92470762386784 Taurus 1 1 44530U 19059C 26257.32730211 .00002835 00000-0 45122-3 0 9996 2 44530 98.6497 67.7907 0008911 38.1211 322.0624 14.72879148371766 TO-108 1 44881U 19093C 26257.29767402 .00000849 00000-0 10155-3 0 9992 2 44881 97.7461 327.3265 0014147 148.0964 212.1112 14.86633414364652 RS-44 1 44909U 19096E 26257.05142585 .00000014 00000-0 20728-4 0 9991 2 44909 82.5172 280.6581 0216450 296.7475 61.1623 12.79749371313715 SALSAT 1 46495U 20068K 26257.26571775 .00005740 00000-0 19484-3 0 9991 2 46495 97.8883 265.8489 0009221 1.1573 358.9687 15.30910957328982 CSS (TIANHE-1) 1 48274U 21035A 26257.13647571 .00017803 00000-0 21833-3 0 9991 2 48274 41.4677 141.9648 0002668 277.3872 82.6664 15.59910891307052 TeikyoSat 4 1 49396U 21102B 26257.07210072 .00001382 00000-0 89264-4 0 9995 2 49396 97.3629 283.0948 0011702 355.1823 4.9292 15.09771114266131 Z-Sat 1 49399U 21102E 26257.28610726 .00003472 00000-0 16943-3 0 9996 2 49399 97.3261 289.9110 0014892 299.5237 60.4513 15.18848694266967 KOSEN 1 1 49402U 21102H 26256.58386791 .00005387 00000-0 20005-3 0 9996 2 49402 97.3103 297.0552 0011622 251.6506 108.3470 15.27918194267512 HO-113 1 50466U 21131B 26257.32547032 .00000341 00000-0 11885-3 0 9991 2 50466 98.4979 349.2303 0004072 173.8375 186.2865 14.41424413247951 SNUGLITE 2 1 52899U 22065F 26257.12967346 .00000711 00000-0 14331-3 0 9992 2 52899 98.2334 41.8751 0008691 103.2455 256.9717 14.64484178224017 UmKA 1 (RS40S) 1 57172U 23091G 26257.22137575 .00004216 00000-0 18921-3 0 9998 2 57172 97.4955 315.5865 0012976 161.9293 198.2406 15.21668228177547 CubeBel-2 (EU11S) 1 57175U 23091K 26257.25176275 .00009545 00000-0 32011-3 0 9990 2 57175 97.4956 321.3475 0010141 152.1002 208.0785 15.31066942177923 RS-38S 1 57189U 23091Z 26257.25576858 .00013602 00000-0 35855-3 0 9994 2 57189 97.5007 328.6554 0008097 110.2207 249.9909 15.38596632178376 SONATE-2 1 59112U 24043Q 26257.24223457 .00044891 00000-0 44284-3 0 9993 2 59112 97.5625 53.6316 0005343 228.2755 131.8048 15.65799600141799 GRBBeta 1 60237U 24128C 26257.00475470 .00002381 00000-0 17058-3 0 9992 2 60237 61.9880 264.5179 0027627 154.2292 206.0185 15.07168899119653 Curium One 1 60242U 24128H 26257.25358754 .00005432 00000-0 31082-3 0 9993 2 60242 61.9767 250.0375 0026668 149.4021 210.8637 15.13612556119938 ROBUSTA-3A 1 60243U 24128J 26256.74129240 .00004375 00000-0 25901-3 0 9991 2 60243 61.9847 254.8302 0028754 146.0792 214.2151 15.12703565119812 CatSat 1 60246U 24125J 26256.85081112 .00101757 00000-0 78909-3 0 9996 2 60246 97.1958 111.2388 0015202 201.2783 158.7850 15.71362401121251 AO-123 1 61781U 24199AY 26257.27015919 .00006153 00000-0 17273-3 0 9992 2 61781 97.2844 125.1434 0013182 356.8267 3.2891 15.36833815147605 LASARsat 1 62391U 24247Q 26256.90123737 .00035804 00000-0 58455-3 0 9993 2 62391 44.9714 121.6324 0009070 196.0682 163.9923 15.51965735 97072 CroCube 1 62394U 24247T 26256.63683198 .00042932 00000-0 62992-3 0 9999 2 62394 44.9680 118.6820 0009410 202.9408 157.1066 15.54832267 97085 JINJUSat 1B 1 63210U 25052A 26257.20501510 .00013312 00000-0 38105-3 0 9992 2 63210 97.3867 154.1841 0005035 110.4742 249.7042 15.36055518 83750 NUSHSAT 1 1 63211U 25052B 26256.69553175 .00017314 00000-0 44664-3 0 9992 2 63211 97.3843 154.5876 0004715 112.7364 247.4381 15.39224729 83741 TEVEL2-4 1 63213U 25052D 26257.16710487 .00014626 00000-0 39934-3 0 9995 2 63213 97.3762 153.8308 0004121 120.1634 240.0020 15.37512722 83772 TEVEL2-5 1 63214U 25052E 26256.67827196 .00016374 00000-0 45012-3 0 9993 2 63214 97.3761 153.2599 0003958 122.7443 237.4184 15.37274978 83691 TEVEL2-6 1 63215U 25052F 26257.14822892 .00014678 00000-0 40406-3 0 9992 2 63215 97.3764 153.7166 0003909 121.9941 238.1684 15.37256625 83760 TEVEL2-1 1 63217U 25052H 26256.69026919 .00014307 00000-0 40231-3 0 9994 2 63217 97.3738 152.7684 0003718 133.3229 226.8326 15.36601017 83676 TEVEL2-3 1 63218U 25052J 26257.13691659 .00014256 00000-0 39975-3 0 9990 2 63218 97.3740 153.2516 0003583 130.0894 230.0664 15.36689120 83743 TEVEL2-2 1 63219U 25052K 26256.68989635 .00014209 00000-0 39941-3 0 9995 2 63219 97.3739 152.7722 0003715 133.6739 226.4814 15.36614752 83676 TEVEL2-9 1 63237U 25052AD 26256.98370297 .00015159 00000-0 45675-3 0 9992 2 63237 97.3797 152.2346 0006012 164.5340 195.6088 15.34404274 83631 TEVEL2-7 1 63238U 25052AE 26256.65221529 .00013320 00000-0 40647-3 0 9992 2 63238 97.3799 151.7775 0006007 167.3882 192.7513 15.34030967 83578 TEVEL2-8 1 63239U 25052AF 26257.18305228 .00012461 00000-0 38042-3 0 9992 2 63239 97.3807 152.2824 0006042 164.9219 195.2205 15.34033786 83653 SPIRONE 1 66657U 25274H 26256.74771819 .00001915 00000-0 18544-3 0 9996 2 66657 97.7479 184.7876 0013624 80.5908 279.6852 14.93840051 43441 K-HERO 1 66660U 25274L 26257.26408343 .00001347 00000-0 13071-3 0 9996 2 66660 97.7486 185.5223 0015451 82.6388 277.6587 14.94234975 43539 SNUGLITE-III DURI 1 66661U 25274M 26257.11657158 .00001063 00000-0 10422-3 0 9993 2 66661 97.7484 185.3971 0016097 83.8330 276.4723 14.94244565 43516 SAKHACUBE-CHOLBON 1 67290U 25313AU 26256.18170051 .00006377 00000-0 24832-3 0 9997 2 67290 97.3865 330.1704 0009965 52.8554 307.3593 15.26292868 39393 RS95S (QMR-KWT-2) 1 67291U 25313AV 26256.46305240 .00011024 00000-0 40121-3 0 9993 2 67291 97.3861 330.8513 0009260 49.9472 310.2578 15.28360312 39465 Ten-Koh2 1 68261U 25241B 26257.04423650 .00004861 00000-0 20622-3 0 9997 2 68261 51.6603 256.4037 0008199 78.6237 281.5662 15.24862942 28466 JACK-002 1 68417U 26067B 26256.84331902 .00005804 00000-0 26991-3 0 9995 2 68417 97.4667 214.4420 0001961 29.1087 331.0258 15.20345854 25419 DISCO 2 1 68431U 26067R 26256.87646161 .00006908 00000-0 32149-3 0 9998 2 68431 97.4700 214.4749 0003908 66.8999 293.2648 15.20248365 25411 HADES-SA (SpinnyONE) 1 68446U 26067AG 26257.13278174 .00016781 00000-0 74041-3 0 9996 2 68446 97.4486 214.3133 0008725 115.2575 244.9566 15.21806279 25445 PARUS-6U1 1 68456U 26067AS 26257.11586943 .00004798 00000-0 23699-3 0 9999 2 68456 97.4652 214.2069 0007318 108.3154 251.8876 15.18319912 25429 SAL-E 1 68458U 26067AU 26257.15375359 .00006927 00000-0 33524-3 0 9996 2 68458 97.4575 214.1450 0007477 115.2102 244.9909 15.18870070 25432 FSI-SAT 2 1 68792U 26088A 26256.38876209 .00002838 00000-0 19101-3 0 9996 2 68792 97.5192 43.5366 0014716 160.3638 199.8160 15.07427793 21574 OrigamiSat 2 1 68795U 26088D 26256.38535328 .00009795 00000-0 59650-3 0 9995 2 68795 97.5180 43.9966 0015483 133.6137 226.6380 15.10499938 21604 ARICA 2 1 68796U 26088E 26257.23254768 .00004072 00000-0 26054-3 0 9992 2 68796 97.5188 44.6937 0016472 130.4520 229.8149 15.09031668 21720 WASEDA-SAT-ZERO-II 1 68797U 26088F 26256.87654588 .00005394 00000-0 33941-3 0 9997 2 68797 97.5187 44.3952 0016350 130.7569 229.5083 15.09504129 21670 MANGARO-II-Piscus 1 68798U 26088G 26257.13334494 .00002652 00000-0 16954-3 0 9998 2 68798 97.5200 44.6873 0019965 133.2204 227.0696 15.09323781 21712 CO-128 1 69912U 26156AV 26256.66663541 .00001313 00000-0 13861-3 0 9995 2 69912 97.7477 155.8991 0000993 293.6112 66.5002 14.90941370 10180 MARINA 1 69920U 26156BD 26256.67967705 .00001885 00000-0 19066-3 0 9991 2 69920 97.7445 156.0100 0006038 294.2224 65.8364 14.92160181 10195 IO-86 1 40931U 26199.45381863 .00000000 00000-0 77536-4 0 07 2 40931 6.0006 322.6653 0012733 338.8432 273.6875 14.79294310 03 LILIUM-4 1 71922C 26067AC 26089.50133053 -.00014632 00000 0 -74472-3 0 04 2 71922 97.4497 49.1617 0004341 5.9603 355.7042 15.16896692 16